| time (UTC) | temp F | wind direction | speed MPH | gust MPH | rain 1hr in | rain 24hr in | rain mn in | humidity % | barometer mb |
| 20260507113023 | 58 | 95 | 13.0 | 21.0 | 0.00 | 0.00 | 0.00 | 84 | 1009.8 |
| 20260507110515 | 58 | 101 | 14.0 | 25.0 | 0.00 | 0.00 | 0.00 | 83 | 1010.1 |
| 20260507110015 | 58 | 110 | 15.0 | 32.0 | 0.00 | 0.00 | 0.00 | 83 | 1010.2 |
| 20260507105022 | 59 | 67 | 13.0 | 24.0 | 0.00 | 0.00 | 0.00 | 83 | 1010.3 |
| 20260507104514 | 59 | 80 | 14.0 | 26.0 | 0.00 | 0.00 | 0.00 | 82 | 1010.1 |
| 20260507103514 | 59 | 24 | 15.0 | 24.0 | 0.00 | 0.00 | 0.00 | 81 | 1010.3 |
| 20260507103027 | 59 | 91 | 15.0 | 28.0 | 0.00 | 0.00 | 0.00 | 81 | 1010.4 |
| 20260507102514 | 59 | 70 | 15.0 | 25.0 | 0.00 | 0.00 | 0.00 | 82 | 1010.5 |
| 20260507100514 | 60 | 105 | 16.0 | 25.0 | 0.00 | 0.00 | 0.00 | 80 | 1010.6 |
| 20260507100014 | 60 | 52 | 17.0 | 28.0 | 0.00 | 0.00 | 0.00 | 80 | 1010.6 |
| 20260507095021 | 60 | 106 | 18.0 | 29.0 | 0.00 | 0.00 | 0.00 | 79 | 1010.7 |
| 20260507093023 | 60 | 55 | 14.0 | 26.0 | 0.00 | 0.00 | 0.00 | 79 | 1010.8 |
| 20260507091513 | 60 | 76 | 16.0 | 24.0 | 0.00 | 0.00 | 0.00 | 80 | 1011.1 |
| 20260507091021 | 60 | 102 | 14.0 | 28.0 | 0.00 | 0.00 | 0.00 | 80 | 1011.0 |
| 20260507085022 | 60 | 83 | 16.0 | 26.0 | 0.00 | 0.00 | 0.00 | 81 | 1010.9 |
| 20260507083513 | 59 | 45 | 13.0 | 21.0 | 0.00 | 0.00 | 0.00 | 82 | 1011.1 |
| 20260507082515 | 60 | 95 | 15.0 | 30.0 | 0.00 | 0.00 | 0.00 | 80 | 1010.9 |
| 20260507081513 | 60 | 90 | 16.0 | 26.0 | 0.00 | 0.00 | 0.00 | 81 | 1010.7 |
| 20260507081021 | 60 | 95 | 16.0 | 26.0 | 0.00 | 0.00 | 0.00 | 81 | 1010.6 |
| 20260507080016 | 59 | 97 | 16.0 | 26.0 | 0.00 | 0.00 | 0.00 | 82 | 1010.5 |
| 20260507075022 | 59 | 117 | 13.0 | 29.0 | 0.00 | 0.00 | 0.00 | 83 | 1010.4 |
| 20260507074021 | 59 | 96 | 14.0 | 25.0 | 0.00 | 0.00 | 0.00 | 83 | 1010.5 |
| 20260507065514 | 57 | 49 | 13.0 | 26.0 | 0.00 | 0.00 | 0.00 | 88 | 1011.1 |
| 20260507064513 | 57 | 71 | 15.0 | 28.0 | 0.00 | 0.00 | 0.00 | 90 | 1011.1 |
| 20260507063513 | 57 | 108 | 14.0 | 21.0 | 0.00 | 0.00 | 0.00 | 92 | 1011.2 |
| 20260507063021 | 56 | 73 | 13.0 | 26.0 | 0.00 | 0.00 | 0.00 | 92 | 1011.3 |
| 20260507062513 | 56 | 108 | 14.0 | 21.0 | 0.00 | 0.00 | 0.00 | 92 | 1011.2 |
| 20260507060515 | 56 | 108 | 12.0 | 20.0 | 0.00 | 0.00 | 0.00 | 93 | 1010.9 |
| 20260507060014 | 56 | 97 | 11.0 | 26.0 | 0.00 | 0.00 | 0.00 | 93 | 1011.0 |
| 20260507055514 | 56 | 98 | 14.0 | 28.0 | 0.00 | 0.00 | 0.00 | 93 | 1010.9 |
| 20260507055021 | 56 | 83 | 13.0 | 21.0 | 0.00 | 0.00 | 0.00 | 94 | 1011.0 |
| 20260507054513 | 56 | 88 | 13.0 | 24.0 | 0.00 | 0.00 | 0.00 | 93 | 1011.3 |
| 20260507053021 | 56 | 97 | 11.0 | 22.0 | 0.00 | 0.00 | 0.00 | 93 | 1011.5 |
| 20260507052515 | 55 | 124 | 12.0 | 25.0 | 0.00 | 0.00 | 0.00 | 93 | 1011.4 |
| 20260507052021 | 55 | 81 | 10.0 | 23.0 | 0.00 | 0.00 | 0.00 | 93 | 1011.4 |
| 20260507050513 | 55 | 88 | 13.0 | 22.0 | 0.00 | 0.00 | 0.00 | 94 | 1011.2 |
| 20260507050014 | 55 | 146 | 13.0 | 20.0 | 0.00 | 0.00 | 0.00 | 94 | 1011.3 |
| 20260507045021 | 55 | 29 | 12.0 | 22.0 | 0.00 | 0.00 | 0.00 | 94 | 1011.4 |
| 20260507044514 | 55 | 86 | 12.0 | 20.0 | 0.00 | 0.00 | 0.00 | 94 | 1011.6 |
| 20260507043513 | 55 | 39 | 11.0 | 23.0 | 0.00 | 0.00 | 0.00 | 94 | 1011.3 |
| 20260507043021 | 55 | 120 | 13.0 | 20.0 | 0.00 | 0.00 | 0.00 | 93 | 1011.3 |
| 20260507042021 | 55 | 115 | 12.0 | 26.0 | 0.00 | 0.00 | 0.00 | 93 | 1011.3 |
| 20260507041513 | 55 | 91 | 11.0 | 21.0 | 0.00 | 0.00 | 0.00 | 93 | 1011.4 |
| 20260507034513 | 55 | 103 | 11.0 | 20.0 | 0.00 | 0.00 | 0.00 | 92 | 1011.5 |
| 20260507034022 | 55 | 122 | 10.0 | 18.0 | 0.00 | 0.00 | 0.00 | 92 | 1011.7 |
| 20260507033514 | 55 | 97 | 7.0 | 14.0 | 0.00 | 0.00 | 0.00 | 92 | 1011.8 |
| 20260507032513 | 55 | 85 | 12.0 | 20.0 | 0.00 | 0.00 | 0.00 | 92 | 1012.0 |
| 20260507032020 | 55 | 67 | 10.0 | 18.0 | 0.00 | 0.00 | 0.00 | 92 | 1012.0 |
| 20260507024513 | 55 | 35 | 9.0 | 15.0 | 0.00 | 0.00 | 0.00 | 92 | 1012.4 |
| 20260507023019 | 55 | 85 | 9.0 | 15.0 | 0.00 | 0.00 | 0.00 | 93 | 1012.4 |
| 20260507022020 | 55 | 108 | 6.0 | 14.0 | 0.00 | 0.00 | 0.00 | 93 | 1012.4 |
| 20260507020513 | 55 | 97 | 9.0 | 14.0 | 0.00 | 0.00 | 0.00 | 93 | 1012.2 |
| 20260507015513 | 55 | 126 | 7.0 | 14.0 | 0.00 | 0.00 | 0.00 | 93 | 1012.3 |
| 20260507013021 | 55 | 87 | 6.0 | 12.0 | 0.00 | 0.00 | 0.00 | 93 | 1012.2 |
| 20260507011513 | 55 | 73 | 7.0 | 15.0 | 0.00 | 0.00 | 0.00 | 93 | 1012.0 |
| 20260507011019 | 55 | 39 | 7.0 | 14.0 | 0.00 | 0.00 | 0.00 | 93 | 1012.0 |
| 20260507010513 | 55 | 79 | 7.0 | 14.0 | 0.00 | 0.00 | 0.00 | 93 | 1012.0 |
| 20260507010013 | 55 | 82 | 9.0 | 13.0 | 0.00 | 0.00 | 0.00 | 93 | 1012.1 |
| 20260507005513 | 55 | 92 | 6.0 | 14.0 | 0.00 | 0.00 | 0.00 | 93 | 1012.2 |
| 20260507004019 | 55 | 64 | 8.0 | 14.0 | 0.00 | 0.00 | 0.00 | 92 | 1012.3 |
| 20260507003512 | 55 | 66 | 7.0 | 14.0 | 0.00 | 0.00 | 0.00 | 92 | 1012.5 |
| 20260507003021 | 55 | 80 | 9.0 | 14.0 | 0.00 | 0.00 | 0.00 | 92 | 1012.4 |
| 20260507002513 | 55 | 112 | 7.0 | 15.0 | 0.00 | 0.00 | 0.00 | 92 | 1012.5 |
| 20260507001512 | 55 | 119 | 6.0 | 12.0 | 0.00 | 0.00 | 0.00 | 92 | 1012.8 |
| 20260507001020 | 55 | 73 | 6.0 | 12.0 | 0.00 | 0.00 | 0.00 | 92 | 1013.0 |
| 20260507000513 | 56 | 89 | 4.0 | 8.0 | 0.00 | 0.00 | 0.00 | 92 | 1013.1 |
| 20260506235513 | 56 | 79 | 5.0 | 13.0 | 0.00 | 0.00 | 0.00 | 92 | 1013.1 |
| 20260506235019 | 56 | 115 | 7.0 | 15.0 | 0.00 | 0.00 | 0.00 | 92 | 1013.1 |
| 20260506234019 | 56 | 92 | 6.0 | 12.0 | 0.00 | 0.00 | 0.00 | 92 | 1013.2 |
| 20260506225514 | 56 | 123 | 7.0 | 15.0 | 0.00 | 0.00 | 0.00 | 91 | 1013.9 |
| 20260506224513 | 56 | 79 | 7.0 | 13.0 | 0.00 | 0.00 | 0.00 | 91 | 1013.8 |
| 20260506224019 | 56 | 69 | 7.0 | 13.0 | 0.00 | 0.00 | 0.00 | 91 | 1013.7 |
| 20260506223513 | 56 | 110 | 7.0 | 15.0 | 0.00 | 0.00 | 0.00 | 91 | 1013.5 |
| 20260506220513 | 56 | 108 | 7.0 | 13.0 | 0.00 | 0.00 | 0.00 | 91 | 1013.6 |
| 20260506215512 | 56 | 80 | 7.0 | 14.0 | 0.00 | 0.00 | 0.00 | 91 | 1013.7 |
| 20260506214019 | 56 | 109 | 8.0 | 13.0 | 0.00 | 0.00 | 0.00 | 91 | 1014.0 |
| 20260506213512 | 56 | 114 | 6.0 | 12.0 | 0.00 | 0.00 | 0.00 | 91 | 1014.1 |
| 20260506213019 | 56 | 80 | 6.0 | 12.0 | 0.00 | 0.00 | 0.00 | 91 | 1014.0 |
| 20260506212019 | 56 | 70 | 7.0 | 12.0 | 0.00 | 0.00 | 0.00 | 91 | 1014.1 |
| 20260506211513 | 56 | 107 | 6.0 | 13.0 | 0.00 | 0.00 | 0.00 | 91 | 1014.2 |
| 20260506204512 | 56 | 105 | 7.0 | 13.0 | 0.00 | 0.00 | 0.00 | 91 | 1013.8 |
| 20260506202513 | 56 | 110 | 6.0 | 12.0 | 0.00 | 0.00 | 0.00 | 92 | 1013.8 |
| 20260506201512 | 57 | 110 | 7.0 | 12.0 | 0.00 | 0.00 | 0.00 | 92 | 1013.6 |
| 20260506200512 | 57 | 88 | 8.0 | 14.0 | 0.00 | 0.00 | 0.00 | 92 | 1013.3 |
| 20260506200012 | 57 | 66 | 10.0 | 16.0 | 0.00 | 0.00 | 0.00 | 92 | 1013.3 |
| 20260506195513 | 57 | 106 | 6.0 | 12.0 | 0.00 | 0.00 | 0.00 | 92 | 1013.2 |
| 20260506195020 | 57 | 37 | 6.0 | 13.0 | 0.00 | 0.00 | 0.00 | 93 | 1013.1 |
| 20260506194019 | 57 | 101 | 10.0 | 20.0 | 0.00 | 0.00 | 0.00 | 92 | 1013.0 |
| 20260506193020 | 57 | 97 | 9.0 | 17.0 | 0.00 | 0.00 | 0.00 | 92 | 1012.9 |
| 20260506192021 | 57 | 55 | 10.0 | 17.0 | 0.00 | 0.00 | 0.00 | 92 | 1012.3 |
| 20260506191514 | 57 | 57 | 11.0 | 20.0 | 0.00 | 0.00 | 0.00 | 92 | 1012.3 |
| 20260506191019 | 57 | 95 | 12.0 | 22.0 | 0.00 | 0.00 | 0.00 | 92 | 1012.1 |
| 20260506185513 | 57 | 73 | 12.0 | 18.0 | 0.00 | 0.00 | 0.00 | 91 | 1011.5 |
| 20260506185019 | 58 | 72 | 10.0 | 15.0 | 0.00 | 0.00 | 0.00 | 91 | 1012.0 |
| 20260506184512 | 58 | 85 | 12.0 | 18.0 | 0.00 | 0.00 | 0.00 | 90 | 1012.2 |
| 20260506184019 | 58 | 80 | 11.0 | 17.0 | 0.00 | 0.00 | 0.00 | 90 | 1012.6 |
| 20260506183514 | 58 | 56 | 10.0 | 17.0 | 0.00 | 0.00 | 0.00 | 89 | 1012.8 |
| 20260506183020 | 58 | 56 | 9.0 | 14.0 | 0.00 | 0.00 | 0.00 | 89 | 1012.9 |
| 20260506181512 | 59 | 121 | 8.0 | 16.0 | 0.00 | 0.00 | 0.00 | 87 | 1013.2 |
| 20260506181020 | 59 | 55 | 7.0 | 15.0 | 0.00 | 0.00 | 0.00 | 87 | 1013.2 |
| 20260506175020 | 60 | 86 | 8.0 | 16.0 | 0.00 | 0.00 | 0.00 | 83 | 1013.7 |
| 20260506173020 | 61 | 37 | 7.0 | 13.0 | 0.00 | 0.00 | 0.00 | 78 | 1013.6 |
| 20260506172512 | 61 | 31 | 6.0 | 9.0 | 0.00 | 0.00 | 0.00 | 78 | 1013.7 |
| 20260506172020 | 61 | 72 | 7.0 | 12.0 | 0.00 | 0.00 | 0.00 | 77 | 1013.7 |
| 20260506171512 | 61 | 87 | 7.0 | 12.0 | 0.00 | 0.00 | 0.00 | 76 | 1013.7 |
| 20260506170512 | 62 | 98 | 7.0 | 12.0 | 0.00 | 0.00 | 0.00 | 71 | 1013.6 |
| 20260506170012 | 62 | 78 | 6.0 | 10.0 | 0.00 | 0.00 | 0.00 | 70 | 1013.5 |
| 20260506164512 | 62 | 59 | 7.0 | 12.0 | 0.00 | 0.00 | 0.00 | 65 | 1013.2 |
| 20260506164019 | 63 | 84 | 7.0 | 14.0 | 0.00 | 0.00 | 0.00 | 62 | 1013.3 |
| 20260506163512 | 63 | 45 | 7.0 | 12.0 | 0.00 | 0.00 | 0.00 | 58 | 1013.3 |
| 20260506162513 | 64 | 121 | 7.0 | 14.0 | 0.00 | 0.00 | 0.00 | 58 | 1013.3 |
| 20260506162020 | 64 | 66 | 9.0 | 16.0 | 0.00 | 0.00 | 0.00 | 56 | 1013.3 |
| 20260506161513 | 64 | 26 | 8.0 | 13.0 | 0.00 | 0.00 | 0.00 | 55 | 1013.2 |
| 20260506161020 | 65 | 56 | 8.0 | 15.0 | 0.00 | 0.00 | 0.00 | 55 | 1013.3 |
| 20260506160512 | 65 | 94 | 7.0 | 12.0 | 0.00 | 0.00 | 0.00 | 54 | 1013.4 |
| 20260506154020 | 66 | 73 | 7.0 | 12.0 | 0.00 | 0.00 | 0.00 | 52 | 1013.6 |
| 20260506152512 | 66 | 102 | 7.0 | 13.0 | 0.00 | 0.00 | 0.00 | 53 | 1013.6 |
| 20260506152020 | 67 | 108 | 6.0 | 12.0 | 0.00 | 0.00 | 0.00 | 52 | 1013.5 |
| 20260506151020 | 67 | 134 | 7.0 | 16.0 | 0.00 | 0.00 | 0.00 | 54 | 1013.6 |
| 20260506150512 | 67 | 87 | 7.0 | 14.0 | 0.00 | 0.00 | 0.00 | 55 | 1013.6 |
| 20260506145512 | 68 | 64 | 7.0 | 12.0 | 0.00 | 0.00 | 0.00 | 55 | 1013.7 |
| 20260506145020 | 68 | 102 | 7.0 | 12.0 | 0.00 | 0.00 | 0.00 | 56 | 1013.7 |
| 20260506144512 | 68 | 92 | 7.0 | 12.0 | 0.00 | 0.00 | 0.00 | 57 | 1013.6 |
| 20260506144020 | 68 | 76 | 7.0 | 14.0 | 0.00 | 0.00 | 0.00 | 57 | 1013.8 |
| 20260506142513 | 68 | 86 | 9.0 | 15.0 | 0.00 | 0.00 | 0.00 | 62 | 1013.8 |
| 20260506142019 | 69 | 93 | 7.0 | 12.0 | 0.00 | 0.00 | 0.00 | 62 | 1013.8 |
| 20260506140514 | 69 | 93 | 7.0 | 13.0 | 0.00 | 0.00 | 0.00 | 62 | 1013.8 |
| 20260506135020 | 69 | 39 | 7.0 | 10.0 | 0.00 | 0.00 | 0.00 | 62 | 1013.9 |
| 20260506134512 | 69 | 66 | 4.0 | 12.0 | 0.00 | 0.00 | 0.00 | 61 | 1013.9 |
| 20260506131020 | 69 | 58 | 5.0 | 12.0 | 0.00 | 0.00 | 0.00 | 58 | 1014.1 |
| 20260506125512 | 70 | 67 | 9.0 | 14.0 | 0.00 | 0.00 | 0.00 | 53 | 1013.9 |
| 20260506125021 | 70 | 79 | 7.0 | 12.0 | 0.00 | 0.00 | 0.00 | 55 | 1013.9 |
| 20260506124512 | 70 | 77 | 6.0 | 10.0 | 0.00 | 0.00 | 0.00 | 53 | 1013.9 |
| 20260506122512 | 70 | 95 | 7.0 | 12.0 | 0.00 | 0.00 | 0.00 | 53 | 1014.1 |
| 20260506122020 | 71 | 67 | 6.0 | 14.0 | 0.00 | 0.00 | 0.00 | 52 | 1014.0 |
| 20260506120512 | 71 | 112 | 6.0 | 10.0 | 0.00 | 0.00 | 0.00 | 51 | 1013.9 |
| 20260506120012 | 70 | 103 | 6.0 | 12.0 | 0.00 | 0.00 | 0.00 | 50 | 1013.8 |
| 20260506115513 | 71 | 84 | 7.0 | 15.0 | 0.00 | 0.00 | 0.00 | 49 | 1014.0 |
| 20260506115019 | 72 | 99 | 3.0 | 15.0 | 0.00 | 0.00 | 0.00 | 47 | 1014.1 |
| 20260506114019 | 72 | 127 | 6.0 | 12.0 | 0.00 | 0.00 | 0.00 | 42 | 1014.1 |